Regional Weather Roundup
Issued by NWS

Home | Current Version | Previous Version | Text Only | Print | Product List | Glossary On
Versions: 1 2 3 4 5 6 7 8 9 10 11 12 13 14 15 16 17 18 19 20 21 22 23 24 25 26 27 28 29 30 31 32 33 34 35 36 37 38 39 40 41 42 43 44 45 46 47 48 49 50
422
ASUS44 KOUN 300710
RWROK

WEATHER ROUNDUP FOR OKLAHOMA
NATIONAL WEATHER SERVICE NORMAN OK
200 AM CDT MON MAY 30 2016

NOTE: "FAIR" INDICATES FEW OR NO CLOUDS BELOW 12,000 FEET WITH NO
      SIGNIFICANT WEATHER AND/OR OBSTRUCTIONS TO VISIBILITY.

OKZ001>007-009>012-014-015-017-300800-
NORTHWEST OKLAHOMA AND THE PANHANDLE

CITY           SKY/WX    TMP DP  RH WIND       PRES   REMARKS
GAGE           CLOUDY    54  51  90 E3        30.07F
GUYMON         CLOUDY    52  48  86 SW3       30.08F
ENID/WOODRING    N/A     70  59  68 S14       30.03F
$$

OKZ016-021>023-033>039-044-045-300800-
SOUTHWEST OKLAHOMA

CITY           SKY/WX    TMP DP  RH WIND       PRES   REMARKS
LAWTON/REGL    CLOUDY    66  63  90 S3        30.06S
LAWTON/FT SILL CLOUDY    67  64  91 S7        30.04S
CLINTON        CLOUDY    63  57  81 NE3       30.06F
HOBART         CLOUDY    63  60  90 NE10      30.03F
ALTUS AFB      CLOUDY    64  57  78 N6        29.99F
$$

OKZ018>020-024>031-300800-
CENTRAL OKLAHOMA

CITY           SKY/WX    TMP DP  RH WIND       PRES   REMARKS
OKLAHOMA CITY  CLOUDY    68  61  78 NE10      30.05F
OKC/WILEY POST CLOUDY    67  61  81 E6        30.06F
OKC/TINKER AFB CLOUDY    65  63  94 N9        30.03F
STILLWATER     CLOUDY    66  60  81 W6        30.02F
GUTHRIE        CLOUDY    65  62  90 S3        30.04F
$$

OKZ008-013-054>072-300800-
NORTHEAST OKLAHOMA

CITY           SKY/WX    TMP DP  RH WIND       PRES   REMARKS
TULSA          MOCLDY    69  63  81 E3        30.01F
TULSA/JONES    MOCLDY    68  63  84 NW3       30.03F
PONCA CITY     CLOUDY    70  62  76 S6        30.03R
BARTLESVILLE   MOCLDY    63  61  93 CALM      30.04F
MUSKOGEE       MOCLDY    68  61  78 SE6       30.03F
$$

OKZ032-040>043-046>053-073>077-300800-
SOUTH CENTRAL/SOUTHEAST OKLAHOMA

CITY           SKY/WX    TMP DP  RH WIND       PRES   REMARKS
ARDMORE/DWNTWN LGT RAIN  70  64  83 S3        30.05R
MCALESTER      MOCLDY    71  62  73 CALM      30.03F
$$





USA.gov is the U.S. government's official web portal to all federal, state and local government web resources and services.